Torna al catalogo

STARLINK-5028

AttivoComunicazioniVLEO
NORAD 53886·PAYLOAD·🇺🇸 United States

Lanciato Sep 24, 2022 da Cape Canaveral Space Force Station

Loading…

Prossimi Passaggi (prossime 24 ore)

TLE

AggiornatoSource: CelesTrak SupGP

Epoca: Sep 15, 2026, 02:46 UTC

1 53886C 22119A   26258.11576389  .00253130  00000+0  74945-2 0  2580
2 53886  53.1600 188.5370 0001337  82.9756  42.3161 15.34197943    14

Traccia STARLINK-5028 in tempo reale con AllMySat

Download on the App Store